| time (UTC) | temp F | wind direction | speed knots | gust knots | rain 1hr in | rain 24hr in | rain mn in | humidity % | barometer mb |
| 20260504081017 | 74 | 95 | 2.6 | 5.2 | 0.19 | 0.19 | 0.19 | 100 | 1015.3 |
| 20260504050017 | 92 | 269 | 1.7 | 5.2 | 0.00 | 0.00 | 0.00 | 48 | 1001.1 |
| 20260504045016 | 91 | 265 | 1.7 | 3.5 | 0.00 | 0.00 | 0.00 | 50 | 1002.6 |
| 20260504044016 | 92 | 273 | 1.7 | 3.5 | 0.00 | 0.00 | 0.00 | 50 | 1001.5 |
| 20260504043017 | 90 | 266 | 1.7 | 4.3 | 0.00 | 0.00 | 0.00 | 53 | 1003.5 |
| 20260504042016 | 89 | 295 | 1.7 | 3.5 | 0.00 | 0.00 | 0.00 | 54 | 1004.5 |
| 20260504041017 | 88 | 317 | 0.9 | 3.5 | 0.00 | 0.00 | 0.00 | 55 | 1005.1 |
| 20260504040017 | 88 | 293 | 1.7 | 3.5 | 0.00 | 0.00 | 0.00 | 57 | 1005.2 |
| 20260504035018 | 88 | 258 | 1.7 | 4.3 | 0.00 | 0.00 | 0.00 | 60 | 1005.3 |
| 20260504034017 | 86 | 293 | 0.9 | 3.5 | 0.00 | 0.00 | 0.00 | 69 | 1007.2 |
| 20260504033017 | 84 | 298 | 1.7 | 3.5 | 0.00 | 0.00 | 0.00 | 70 | 1008.2 |
| 20260504032018 | 86 | 266 | 1.7 | 3.5 | 0.00 | 0.00 | 0.00 | 69 | 1006.7 |
| 20260504031017 | 84 | 282 | 0.9 | 3.5 | 0.00 | 0.00 | 0.00 | 77 | 1008.2 |
| 20260504030018 | 84 | 280 | 0.9 | 2.6 | 0.00 | 0.00 | 0.00 | 76 | 1008.4 |
| 20260504025016 | 83 | 259 | 0.9 | 3.5 | 0.00 | 0.00 | 0.00 | 81 | 1008.5 |
| 20260504024017 | 82 | 251 | 0.9 | 3.5 | 0.00 | 0.00 | 0.00 | 88 | 1009.5 |
| 20260504023018 | 82 | 261 | 0.9 | 2.6 | 0.00 | 0.00 | 0.00 | 94 | 1009.6 |
| 20260504022018 | 80 | 250 | 0.9 | 2.6 | 0.00 | 0.00 | 0.00 | 100 | 1011.0 |
| 20260504021017 | 79 | 276 | 0.9 | 3.5 | 0.00 | 0.00 | 0.00 | 100 | 1011.8 |
| 20260504020018 | 78 | 285 | 0.9 | 2.6 | 0.00 | 0.00 | 0.00 | 100 | 1013.4 |
| 20260504015036 | 76 | 268 | 0.9 | 3.5 | 0.00 | 0.00 | 0.00 | 100 | 1015.2 |
| 20260504013016 | 73 | 332 | 0.9 | 2.6 | 0.00 | 0.00 | 0.00 | 100 | 1017.8 |
| 20260504012018 | 71 | 62 | 0.9 | 2.6 | 0.00 | 0.00 | 0.00 | 100 | 1019.8 |
| 20260504011017 | 71 | 34 | 1.7 | 6.1 | 0.00 | 0.00 | 0.00 | 100 | 1020.4 |
| 20260504010016 | 70 | 40 | 0.9 | 3.5 | 0.00 | 0.00 | 0.00 | 100 | 1020.6 |
| 20260504005018 | 71 | 22 | 0.9 | 1.7 | 0.00 | 0.00 | 0.00 | 100 | 1020.2 |
| 20260504004037 | 70 | 36 | 0.9 | 3.5 | 0.00 | 0.00 | 0.00 | 100 | 1020.4 |
| 20260504003018 | 70 | 42 | 0.9 | 2.6 | 0.00 | 0.00 | 0.00 | 100 | 1020.1 |
| 20260504002016 | 70 | 30 | 0.9 | 1.7 | 0.00 | 0.00 | 0.00 | 100 | 1019.8 |
| 20260504001017 | 70 | 352 | 0.0 | 0.9 | 0.00 | 0.00 | 0.00 | 100 | 1019.8 |
| 20260504000037 | 70 | 340 | 0.0 | 0.9 | 0.00 | 0.00 | 0.00 | 100 | 1019.7 |
| 20260503235017 | 70 | 13 | 0.0 | 0.9 | 0.00 | 0.00 | 0.00 | 100 | 1019.7 |
| 20260503234017 | 71 | 29 | 0.9 | 1.7 | 0.00 | 0.00 | 0.00 | 100 | 1019.4 |
| 20260503233036 | 71 | 32 | 0.9 | 1.7 | 0.00 | 0.00 | 0.00 | 100 | 1018.8 |
| 20260503232017 | 71 | 37 | 0.9 | 1.7 | 0.00 | 0.00 | 0.00 | 100 | 1019.2 |
| 20260503231016 | 71 | 54 | 0.0 | 0.9 | 0.00 | 0.00 | 0.00 | 100 | 1018.7 |
| 20260503230016 | 72 | 35 | 0.9 | 1.7 | 0.00 | 0.00 | 0.00 | 100 | 1018.3 |
| 20260503225037 | 72 | 49 | 0.9 | 0.9 | 0.00 | 0.00 | 0.00 | 100 | 1018.1 |
| 20260503223016 | 71 | 260 | 0.9 | 1.7 | 0.00 | 0.00 | 0.00 | 100 | 1017.7 |
| 20260503222017 | 71 | 265 | 0.9 | 1.7 | 0.00 | 0.00 | 0.00 | 100 | 1017.7 |
| 20260503221016 | 71 | 256 | 0.9 | 3.5 | 0.00 | 0.00 | 0.00 | 100 | 1017.7 |
| 20260503220017 | 71 | 250 | 0.9 | 0.9 | 0.00 | 0.00 | 0.00 | 100 | 1017.4 |
| 20260503215017 | 72 | 240 | 0.9 | 1.7 | 0.00 | 0.00 | 0.00 | 100 | 1017.2 |
| 20260503214016 | 72 | 242 | 0.9 | 1.7 | 0.00 | 0.00 | 0.00 | 100 | 1017.1 |
| 20260503213017 | 73 | 238 | 0.9 | 2.6 | 0.00 | 0.00 | 0.00 | 100 | 1016.5 |
| 20260503212058 | 73 | 236 | 0.9 | 2.6 | 0.00 | 0.00 | 0.00 | 100 | 1016.5 |
| 20260503211016 | 73 | 236 | 0.9 | 2.6 | 0.00 | 0.00 | 0.00 | 100 | 1016.8 |
| 20260503210017 | 72 | 234 | 0.9 | 1.7 | 0.00 | 0.00 | 0.00 | 100 | 1017.1 |
| 20260503205016 | 72 | 254 | 0.9 | 1.7 | 0.00 | 0.00 | 0.00 | 100 | 1017.4 |
| 20260503204016 | 73 | 245 | 0.9 | 2.6 | 0.00 | 0.00 | 0.00 | 100 | 1017.0 |
| 20260503203019 | 73 | 234 | 1.7 | 3.5 | 0.00 | 0.00 | 0.00 | 100 | 1017.0 |
| 20260503202018 | 73 | 231 | 0.9 | 3.5 | 0.00 | 0.00 | 0.00 | 100 | 1016.9 |
| 20260503201019 | 73 | 229 | 0.9 | 1.7 | 0.00 | 0.00 | 0.00 | 100 | 1017.2 |
| 20260503200017 | 73 | 229 | 1.7 | 3.5 | 0.00 | 0.00 | 0.00 | 100 | 1017.1 |
| 20260503195036 | 73 | 227 | 1.7 | 3.5 | 0.00 | 0.00 | 0.00 | 100 | 1016.9 |
| 20260503194017 | 73 | 232 | 1.7 | 3.5 | 0.00 | 0.00 | 0.00 | 100 | 1017.1 |
| 20260503193016 | 73 | 231 | 1.7 | 3.5 | 0.00 | 0.00 | 0.00 | 100 | 1017.2 |
| 20260503192018 | 73 | 248 | 0.9 | 1.7 | 0.00 | 0.00 | 0.00 | 100 | 1017.5 |
| 20260503191017 | 74 | 236 | 0.9 | 2.6 | 0.00 | 0.00 | 0.00 | 100 | 1017.1 |
| 20260503190018 | 74 | 238 | 0.9 | 1.7 | 0.00 | 0.00 | 0.00 | 100 | 1016.8 |
| 20260503185016 | 74 | 240 | 0.9 | 2.6 | 0.00 | 0.00 | 0.00 | 100 | 1017.3 |
| 20260503184017 | 73 | 237 | 0.9 | 1.7 | 0.00 | 0.00 | 0.00 | 100 | 1018.1 |
| 20260503183018 | 74 | 235 | 0.9 | 1.7 | 0.00 | 0.00 | 0.00 | 100 | 1017.8 |
| 20260503182017 | 73 | 242 | 0.9 | 3.5 | 0.00 | 0.00 | 0.00 | 100 | 1018.5 |
| 20260503181017 | 73 | 253 | 0.9 | 1.7 | 0.00 | 0.00 | 0.00 | 100 | 1018.5 |
| 20260503180016 | 73 | 252 | 0.9 | 2.6 | 0.00 | 0.00 | 0.00 | 100 | 1018.6 |
| 20260503175040 | 73 | 254 | 0.9 | 1.7 | 0.00 | 0.00 | 0.00 | 100 | 1018.9 |
| 20260503174035 | 74 | 280 | 0.0 | 0.9 | 0.00 | 0.00 | 0.00 | 100 | 1018.2 |
| 20260503173016 | 75 | 249 | 0.9 | 0.9 | 0.00 | 0.00 | 0.00 | 100 | 1017.2 |
| 20260503172017 | 76 | 275 | 0.9 | 2.6 | 0.00 | 0.00 | 0.00 | 100 | 1016.3 |
| 20260503171037 | 75 | 225 | 0.0 | 0.9 | 0.00 | 0.00 | 0.00 | 100 | 1016.6 |
| 20260503131016 | 83 | 15 | 0.9 | 0.9 | 0.00 | 0.00 | 0.00 | 38 | 1005.0 |